Regional Weather Roundup
Issued by NWS

Home | Current Version | Previous Version | Graphics & Text | Print | Product List | Glossary On
Versions: 1 2 3 4 5 6 7 8 9 10 11 12 13 14 15 16 17 18 19 20 21 22 23 24 25 26 27 28 29 30 31 32 33 34 35 36 37 38 39 40 41 42 43 44 45 46 47 48 49 50
000
ASUS43 KFSD 212210
RWRSD

WEATHER ROUNDUP FOR SOUTH DAKOTA
NATIONAL WEATHER SERVICE SIOUX FALLS SD
400 PM CST TUE NOV 21 2017

NOTE: "FAIR" INDICATES FEW OR NO CLOUDS BELOW 12,000 FEET WITH NO
SIGNIFICANT WEATHER AND/OR OBSTRUCTIONS TO VISIBILITY.


SDZ001>005-009-010-012>017-212300-
NORTHWEST AND NORTH CENTRAL SOUTH DAKOTA

CITY           SKY/WX    TMP DP  RH WIND       PRES   REMARKS
BUFFALO          N/A     32   9  38 W9        30.19F WCI  24
FAITH            N/A     26   2  35 NW9       30.28F WCI  17
MOBRIDGE       PTCLDY    24   5  44 NW9       30.33F WCI  14
$$

SDZ012>016-024>037-041>051-057-063-072>074-212300-
SOUTHWEST AND SOUTH CENTRAL SOUTH DAKOTA

CITY           SKY/WX    TMP DP  RH WIND       PRES   REMARKS
RAPID CTY ARPT SUNNY     34  20  56 N6        30.28F WCI  29
PIERRE         CLEAR     25   8  48 NW10      30.36R WCI  15
CUSTER         SUNNY     36  21  54 W10       30.19S
ELLSWORTH AFB  SUNNY     35  22  59 N3        30.27F
PHILIP         CLOUDY    30  12  47 NW3       30.35F
PINE RIDGE     MOSUNNY   40  27  59 CALM      30.29S
SPEARFISH      FAIR      34  25  69 E5        30.23F WCI  30
WINNER         FAIR      24  12  60 NW13      30.38R WCI  12
$$

SDZ004>011-016>023-039-040-212300-
NORTHEAST SOUTH DAKOTA

CITY           SKY/WX    TMP DP  RH WIND       PRES   REMARKS
ABERDEEN       CLEAR     24   7  48 NW12      30.37R WCI  13
WATERTOWN      CLEAR     22   6  50 NW12      30.30R WCI  10
BROOKINGS      CLEAR     24   8  50 NW20      30.29R WCI  10
SISSETON         N/A     24   8  50 NW17      30.33R WCI  11
$$

SDZ017-020-022-023-036>040-048>070-212300-
SOUTHEAST SOUTH DAKOTA

CITY           SKY/WX    TMP DP  RH WIND       PRES   REMARKS
SIOUX FALLS    CLEAR     29   9  43 N13       30.32R WCI  19
HURON          CLEAR     25   5  42 NW13      30.37R WCI  14
CHAMBERLAIN    CLEAR     27  10  47 W9        30.39R WCI  18
MITCHELL       CLEAR     27   7  42 NW13      30.38R WCI  16
YANKTON        CLEAR     27  10  49 NW20      30.36R WCI  13
$$

ABBREVIATIONS USED IN REMARKS
   TC - TEMPERATURE IN CELSIUS
  WCI - WIND CHILL INDEX
   HX - HEAT INDEX
  VSB - VISIBILITY





USA.gov is the U.S. government's official web portal to all federal, state and local government web resources and services.